| time (UTC) | temp F | wind direction | speed MPH | gust MPH | rain 1hr in | rain 24hr in | rain mn in | humidity % | barometer mb |
| 20260507033029 | 57 | 200 | 6.0 | 11.0 | 0.00 | 0.00 | 0.00 | 76 | 1020.9 |
| 20260507032530 | 57 | 191 | 7.0 | 11.0 | 0.00 | 0.00 | 0.00 | 76 | 1020.9 |
| 20260507032029 | 58 | 208 | 6.0 | 10.0 | 0.00 | 0.00 | 0.00 | 76 | 1020.8 |
| 20260507031528 | 58 | 194 | 6.0 | 11.0 | 0.00 | 0.00 | 0.00 | 75 | 1020.8 |
| 20260507031029 | 58 | 208 | 6.0 | 11.0 | 0.00 | 0.00 | 0.00 | 75 | 1020.8 |
| 20260507030528 | 58 | 200 | 6.0 | 11.0 | 0.00 | 0.00 | 0.00 | 75 | 1020.7 |
| 20260507030028 | 58 | 200 | 5.0 | 9.0 | 0.00 | 0.00 | 0.00 | 74 | 1020.7 |
| 20260507025530 | 58 | 204 | 5.0 | 9.0 | 0.00 | 0.00 | 0.00 | 74 | 1020.6 |
| 20260507025030 | 58 | 153 | 5.0 | 9.0 | 0.00 | 0.00 | 0.00 | 74 | 1020.6 |
| 20260507024529 | 58 | 191 | 5.0 | 9.0 | 0.00 | 0.00 | 0.00 | 74 | 1020.6 |
| 20260507024028 | 58 | 194 | 5.0 | 9.0 | 0.00 | 0.00 | 0.00 | 74 | 1020.5 |
| 20260507023529 | 58 | 184 | 5.0 | 9.0 | 0.00 | 0.00 | 0.00 | 74 | 1020.5 |
| 20260507023028 | 58 | 186 | 5.0 | 9.0 | 0.00 | 0.00 | 0.00 | 74 | 1020.5 |
| 20260507022029 | 58 | 163 | 6.0 | 10.0 | 0.00 | 0.00 | 0.00 | 74 | 1020.4 |
| 20260507021529 | 58 | 201 | 6.0 | 10.0 | 0.00 | 0.00 | 0.00 | 73 | 1020.4 |
| 20260507021029 | 58 | 198 | 5.0 | 8.0 | 0.00 | 0.00 | 0.00 | 74 | 1020.4 |
| 20260507020529 | 58 | 191 | 5.0 | 8.0 | 0.00 | 0.00 | 0.00 | 73 | 1020.4 |
| 20260507020028 | 58 | 198 | 5.0 | 9.0 | 0.00 | 0.00 | 0.00 | 73 | 1020.4 |
| 20260507015529 | 58 | 180 | 5.0 | 9.0 | 0.00 | 0.00 | 0.00 | 73 | 1020.5 |
| 20260507015029 | 58 | 180 | 5.0 | 9.0 | 0.00 | 0.00 | 0.00 | 73 | 1020.4 |
| 20260507014529 | 58 | 202 | 4.0 | 8.0 | 0.00 | 0.00 | 0.00 | 73 | 1020.5 |
| 20260507014029 | 58 | 189 | 5.0 | 7.0 | 0.00 | 0.00 | 0.00 | 73 | 1020.5 |
| 20260507013528 | 58 | 169 | 5.0 | 8.0 | 0.00 | 0.00 | 0.00 | 73 | 1020.5 |
| 20260507013029 | 58 | 181 | 5.0 | 8.0 | 0.00 | 0.00 | 0.00 | 73 | 1020.5 |
| 20260507012529 | 58 | 175 | 5.0 | 8.0 | 0.00 | 0.00 | 0.00 | 73 | 1020.6 |
| 20260507012030 | 58 | 186 | 5.0 | 10.0 | 0.00 | 0.00 | 0.00 | 73 | 1020.6 |
| 20260507011529 | 58 | 193 | 5.0 | 10.0 | 0.00 | 0.00 | 0.00 | 73 | 1020.6 |
| 20260507011028 | 58 | 181 | 4.0 | 9.0 | 0.00 | 0.00 | 0.00 | 73 | 1020.5 |
| 20260507010528 | 58 | 200 | 4.0 | 8.0 | 0.00 | 0.00 | 0.00 | 73 | 1020.6 |
| 20260507005529 | 58 | 172 | 5.0 | 11.0 | 0.00 | 0.00 | 0.00 | 74 | 1020.6 |
| 20260507005031 | 58 | 200 | 6.0 | 11.0 | 0.00 | 0.00 | 0.00 | 74 | 1020.6 |
| 20260507004529 | 58 | 190 | 6.0 | 11.0 | 0.00 | 0.00 | 0.00 | 73 | 1020.7 |
| 20260507004029 | 58 | 192 | 6.0 | 10.0 | 0.00 | 0.00 | 0.00 | 73 | 1020.7 |
| 20260507003529 | 58 | 181 | 4.0 | 10.0 | 0.00 | 0.00 | 0.00 | 73 | 1020.7 |
| 20260507003029 | 58 | 190 | 4.0 | 9.0 | 0.00 | 0.00 | 0.00 | 73 | 1020.7 |
| 20260507002529 | 58 | 184 | 4.0 | 8.0 | 0.00 | 0.00 | 0.00 | 73 | 1020.7 |
| 20260507002030 | 58 | 157 | 4.0 | 9.0 | 0.00 | 0.00 | 0.00 | 73 | 1020.7 |
| 20260507001029 | 59 | 186 | 4.0 | 8.0 | 0.00 | 0.00 | 0.00 | 73 | 1020.6 |
| 20260507000029 | 58 | 199 | 4.0 | 8.0 | 0.00 | 0.00 | 0.00 | 73 | 1020.6 |
| 20260506235030 | 58 | 169 | 4.0 | 7.0 | 0.00 | 0.00 | 0.00 | 73 | 1020.7 |
| 20260506234529 | 58 | 169 | 4.0 | 8.0 | 0.00 | 0.00 | 0.00 | 73 | 1020.7 |
| 20260506233529 | 58 | 182 | 5.0 | 10.0 | 0.00 | 0.00 | 0.00 | 73 | 1020.7 |
| 20260506233029 | 58 | 196 | 6.0 | 10.0 | 0.00 | 0.00 | 0.00 | 73 | 1020.7 |
| 20260506232529 | 58 | 181 | 6.0 | 12.0 | 0.00 | 0.00 | 0.00 | 73 | 1020.8 |
| 20260506232029 | 58 | 212 | 7.0 | 12.0 | 0.00 | 0.00 | 0.00 | 73 | 1020.8 |
| 20260506231532 | 58 | 0 | 6.0 | 10.0 | 0.00 | 0.00 | 0.00 | 72 | 1020.8 |
| 20260506231028 | 58 | 184 | 5.0 | 10.0 | 0.00 | 0.00 | 0.00 | 72 | 1020.9 |
| 20260506230529 | 58 | 192 | 5.0 | 8.0 | 0.00 | 0.00 | 0.00 | 72 | 1020.8 |
| 20260506230029 | 58 | 202 | 5.0 | 10.0 | 0.00 | 0.00 | 0.00 | 72 | 1020.8 |
| 20260506225529 | 58 | 201 | 6.0 | 11.0 | 0.00 | 0.00 | 0.00 | 72 | 1020.9 |
| 20260506224529 | 58 | 209 | 6.0 | 10.0 | 0.00 | 0.00 | 0.00 | 73 | 1020.9 |
| 20260506224030 | 58 | 195 | 6.0 | 11.0 | 0.00 | 0.00 | 0.00 | 72 | 1020.8 |
| 20260506223529 | 58 | 211 | 7.0 | 13.0 | 0.00 | 0.00 | 0.00 | 72 | 1020.8 |
| 20260506222529 | 58 | 200 | 8.0 | 16.0 | 0.00 | 0.00 | 0.00 | 73 | 1020.9 |
| 20260506222029 | 58 | 204 | 8.0 | 16.0 | 0.00 | 0.00 | 0.00 | 72 | 1020.9 |
| 20260506221529 | 58 | 206 | 8.0 | 14.0 | 0.00 | 0.00 | 0.00 | 72 | 1021.0 |
| 20260506221029 | 58 | 205 | 7.0 | 13.0 | 0.00 | 0.00 | 0.00 | 72 | 1021.0 |
| 20260506220532 | 58 | 217 | 7.0 | 13.0 | 0.00 | 0.00 | 0.00 | 71 | 1021.0 |
| 20260506220029 | 59 | 173 | 7.0 | 14.0 | 0.00 | 0.00 | 0.00 | 70 | 1021.0 |
| 20260506215028 | 59 | 200 | 8.0 | 14.0 | 0.00 | 0.00 | 0.00 | 70 | 1020.9 |
| 20260506214028 | 59 | 198 | 7.0 | 13.0 | 0.00 | 0.00 | 0.00 | 69 | 1020.9 |
| 20260506213531 | 59 | 204 | 7.0 | 13.0 | 0.00 | 0.00 | 0.00 | 69 | 1021.0 |
| 20260506213029 | 60 | 196 | 6.0 | 13.0 | 0.00 | 0.00 | 0.00 | 69 | 1021.0 |
| 20260506212529 | 59 | 205 | 6.0 | 11.0 | 0.00 | 0.00 | 0.00 | 70 | 1020.9 |
| 20260506211528 | 59 | 197 | 7.0 | 11.0 | 0.00 | 0.00 | 0.00 | 70 | 1021.1 |
| 20260506211029 | 59 | 181 | 7.0 | 14.0 | 0.00 | 0.00 | 0.00 | 70 | 1021.0 |
| 20260506210529 | 59 | 157 | 7.0 | 14.0 | 0.00 | 0.00 | 0.00 | 70 | 1021.0 |
| 20260506210027 | 59 | 196 | 6.0 | 11.0 | 0.00 | 0.00 | 0.00 | 70 | 1021.1 |
| 20260506205527 | 59 | 182 | 6.0 | 12.0 | 0.00 | 0.00 | 0.00 | 70 | 1021.0 |
| 20260506205025 | 59 | 198 | 7.0 | 12.0 | 0.00 | 0.00 | 0.00 | 70 | 1021.0 |
| 20260506204524 | 59 | 217 | 7.0 | 12.0 | 0.00 | 0.00 | 0.00 | 70 | 1021.0 |
| 20260506204025 | 59 | 204 | 7.0 | 13.0 | 0.00 | 0.00 | 0.00 | 70 | 1020.9 |
| 20260506203522 | 59 | 200 | 7.0 | 13.0 | 0.00 | 0.00 | 0.00 | 70 | 1020.8 |
| 20260506202521 | 59 | 215 | 7.0 | 15.0 | 0.00 | 0.00 | 0.00 | 71 | 1020.9 |
| 20260506202021 | 59 | 192 | 8.0 | 15.0 | 0.00 | 0.00 | 0.00 | 71 | 1020.9 |
| 20260506201521 | 59 | 182 | 8.0 | 15.0 | 0.00 | 0.00 | 0.00 | 71 | 1020.9 |
| 20260506201021 | 58 | 180 | 8.0 | 16.0 | 0.00 | 0.00 | 0.00 | 71 | 1020.9 |
| 20260506200521 | 58 | 194 | 9.0 | 16.0 | 0.00 | 0.00 | 0.00 | 71 | 1020.9 |
| 20260506200021 | 59 | 223 | 9.0 | 16.0 | 0.00 | 0.00 | 0.00 | 70 | 1020.8 |
| 20260506195520 | 58 | 202 | 8.0 | 16.0 | 0.00 | 0.00 | 0.00 | 71 | 1020.8 |
| 20260506195021 | 58 | 207 | 7.0 | 14.0 | 0.00 | 0.00 | 0.00 | 72 | 1020.8 |
| 20260506194520 | 58 | 221 | 7.0 | 14.0 | 0.00 | 0.00 | 0.00 | 72 | 1020.8 |
| 20260506193520 | 58 | 177 | 6.0 | 11.0 | 0.00 | 0.00 | 0.00 | 73 | 1020.8 |
| 20260506193021 | 58 | 213 | 6.0 | 12.0 | 0.00 | 0.00 | 0.00 | 75 | 1020.8 |
| 20260506192020 | 57 | 206 | 6.0 | 11.0 | 0.00 | 0.00 | 0.00 | 75 | 1020.8 |
| 20260506191521 | 57 | 180 | 6.0 | 11.0 | 0.00 | 0.00 | 0.00 | 75 | 1020.7 |
| 20260506191020 | 57 | 157 | 5.0 | 9.0 | 0.00 | 0.00 | 0.00 | 76 | 1020.7 |
| 20260506190520 | 57 | 172 | 5.0 | 12.0 | 0.00 | 0.00 | 0.00 | 76 | 1020.6 |
| 20260506190017 | 57 | 213 | 6.0 | 12.0 | 0.00 | 0.00 | 0.00 | 76 | 1020.6 |
| 20260506185517 | 57 | 178 | 4.0 | 9.0 | 0.00 | 0.00 | 0.00 | 77 | 1020.7 |
| 20260506184517 | 56 | 184 | 4.0 | 9.0 | 0.00 | 0.00 | 0.00 | 78 | 1020.7 |
| 20260506183516 | 56 | 200 | 4.0 | 11.0 | 0.00 | 0.00 | 0.00 | 78 | 1020.7 |
| 20260506183017 | 56 | 196 | 5.0 | 10.0 | 0.00 | 0.00 | 0.00 | 79 | 1020.7 |
| 20260506182516 | 56 | 198 | 5.0 | 10.0 | 0.00 | 0.00 | 0.00 | 79 | 1020.8 |
| 20260506182018 | 56 | 193 | 4.0 | 10.0 | 0.00 | 0.00 | 0.00 | 80 | 1020.7 |
| 20260506181014 | 56 | 163 | 5.0 | 9.0 | 0.00 | 0.00 | 0.00 | 81 | 1020.8 |
| 20260506180515 | 56 | 188 | 5.0 | 9.0 | 0.00 | 0.00 | 0.00 | 82 | 1020.8 |
| 20260506180014 | 56 | 131 | 5.0 | 8.0 | 0.00 | 0.00 | 0.00 | 82 | 1020.6 |
| 20260506175015 | 55 | 185 | 5.0 | 9.0 | 0.00 | 0.00 | 0.00 | 84 | 1020.3 |
| 20260506174515 | 55 | 175 | 5.0 | 9.0 | 0.00 | 0.00 | 0.00 | 85 | 1020.4 |
| 20260506174014 | 55 | 196 | 6.0 | 10.0 | 0.00 | 0.00 | 0.00 | 85 | 1020.5 |
| 20260506173514 | 55 | 180 | 6.0 | 10.0 | 0.00 | 0.00 | 0.00 | 85 | 1020.4 |
| 20260506171514 | 55 | 203 | 4.0 | 9.0 | 0.00 | 0.00 | 0.00 | 87 | 1020.4 |
| 20260506171015 | 54 | 186 | 4.0 | 9.0 | 0.00 | 0.00 | 0.00 | 87 | 1020.6 |
| 20260506170514 | 54 | 196 | 3.0 | 9.0 | 0.00 | 0.00 | 0.00 | 87 | 1020.7 |
| 20260506170006 | 54 | 194 | 2.0 | 6.0 | 0.00 | 0.00 | 0.00 | 87 | 1020.6 |
| 20260506165508 | 54 | 175 | 3.0 | 7.0 | 0.00 | 0.00 | 0.00 | 87 | 1020.6 |
| 20260506165005 | 54 | 155 | 4.0 | 9.0 | 0.00 | 0.00 | 0.00 | 87 | 1020.4 |
| 20260506164504 | 54 | 158 | 4.0 | 9.0 | 0.00 | 0.00 | 0.00 | 87 | 1020.4 |
| 20260506164004 | 54 | 178 | 4.0 | 10.0 | 0.00 | 0.00 | 0.00 | 87 | 1020.4 |
| 20260506163504 | 54 | 180 | 4.0 | 10.0 | 0.00 | 0.00 | 0.00 | 87 | 1020.5 |
| 20260506163005 | 54 | 166 | 4.0 | 10.0 | 0.00 | 0.00 | 0.00 | 87 | 1020.4 |
| 20260506162504 | 54 | 204 | 5.0 | 10.0 | 0.00 | 0.00 | 0.00 | 87 | 1020.3 |
| 20260506162003 | 54 | 154 | 5.0 | 9.0 | 0.00 | 0.00 | 0.00 | 87 | 1020.1 |
| 20260506161501 | 54 | 188 | 4.0 | 10.0 | 0.00 | 0.00 | 0.00 | 88 | 1020.2 |
| 20260506161001 | 54 | 192 | 5.0 | 10.0 | 0.00 | 0.00 | 0.00 | 88 | 1020.1 |
| 20260506160501 | 54 | 182 | 5.0 | 11.0 | 0.00 | 0.00 | 0.00 | 88 | 1019.9 |
| 20260506160003 | 54 | 205 | 4.0 | 11.0 | 0.00 | 0.00 | 0.00 | 88 | 1019.7 |
| 20260506155502 | 54 | 173 | 4.0 | 7.0 | 0.00 | 0.00 | 0.00 | 88 | 1019.9 |
| 20260506154001 | 54 | 196 | 3.0 | 7.0 | 0.00 | 0.00 | 0.00 | 88 | 1020.0 |
| 20260506153001 | 53 | 171 | 4.0 | 8.0 | 0.00 | 0.00 | 0.00 | 88 | 1020.3 |
| 20260506152501 | 53 | 205 | 4.0 | 7.0 | 0.00 | 0.00 | 0.00 | 88 | 1020.3 |
| 20260506152000 | 54 | 192 | 4.0 | 8.0 | 0.00 | 0.00 | 0.00 | 88 | 1020.4 |
| 20260506151501 | 54 | 192 | 4.0 | 8.0 | 0.00 | 0.00 | 0.00 | 88 | 1020.2 |
| 20260506151001 | 54 | 171 | 4.0 | 9.0 | 0.00 | 0.00 | 0.00 | 88 | 1020.2 |
| 20260506150501 | 53 | 203 | 4.0 | 9.0 | 0.00 | 0.00 | 0.00 | 88 | 1020.0 |
| 20260506150001 | 54 | 184 | 4.0 | 9.0 | 0.00 | 0.00 | 0.00 | 87 | 1019.9 |
| 20260506145501 | 54 | 183 | 3.0 | 7.0 | 0.00 | 0.00 | 0.00 | 87 | 1019.8 |
| 20260506145000 | 54 | 174 | 3.0 | 7.0 | 0.00 | 0.00 | 0.00 | 87 | 1019.9 |
| 20260506144502 | 54 | 186 | 3.0 | 6.0 | 0.00 | 0.00 | 0.00 | 87 | 1020.0 |
| 20260506144001 | 54 | 182 | 3.0 | 6.0 | 0.00 | 0.00 | 0.00 | 87 | 1020.0 |
| 20260506143500 | 54 | 192 | 2.0 | 5.0 | 0.00 | 0.00 | 0.00 | 87 | 1020.0 |
| 20260506142001 | 54 | 216 | 2.0 | 6.0 | 0.00 | 0.00 | 0.00 | 86 | 1020.0 |
| 20260506141501 | 54 | 205 | 3.0 | 6.0 | 0.00 | 0.00 | 0.00 | 86 | 1019.9 |
| 20260506141002 | 54 | 198 | 3.0 | 6.0 | 0.00 | 0.00 | 0.00 | 86 | 1019.8 |
| 20260506140501 | 54 | 180 | 4.0 | 8.0 | 0.00 | 0.00 | 0.00 | 86 | 1019.7 |
| 20260506140000 | 54 | 186 | 3.0 | 8.0 | 0.00 | 0.00 | 0.00 | 86 | 1019.7 |
| 20260506135501 | 54 | 187 | 3.0 | 6.0 | 0.00 | 0.00 | 0.00 | 86 | 1019.7 |
| 20260506135002 | 54 | 182 | 2.0 | 5.0 | 0.00 | 0.00 | 0.00 | 85 | 1019.7 |
| 20260506134501 | 54 | 190 | 2.0 | 5.0 | 0.00 | 0.00 | 0.00 | 85 | 1019.8 |
| 20260506134001 | 54 | 192 | 3.0 | 7.0 | 0.00 | 0.00 | 0.00 | 85 | 1019.7 |
| 20260506133001 | 54 | 176 | 3.0 | 6.0 | 0.00 | 0.00 | 0.00 | 85 | 1019.7 |
| 20260506132501 | 54 | 188 | 3.0 | 5.0 | 0.00 | 0.00 | 0.00 | 85 | 1019.7 |
| 20260506132001 | 54 | 194 | 3.0 | 6.0 | 0.00 | 0.00 | 0.00 | 85 | 1019.6 |
| 20260506131001 | 54 | 182 | 4.0 | 8.0 | 0.00 | 0.00 | 0.00 | 85 | 1019.4 |
| 20260506130500 | 54 | 206 | 3.0 | 8.0 | 0.00 | 0.00 | 0.00 | 85 | 1019.6 |
| 20260506130001 | 54 | 202 | 4.0 | 10.0 | 0.00 | 0.00 | 0.00 | 85 | 1019.2 |
| 20260506124501 | 54 | 189 | 4.0 | 9.0 | 0.00 | 0.00 | 0.00 | 84 | 1019.2 |
| 20260506124001 | 54 | 173 | 4.0 | 9.0 | 0.00 | 0.00 | 0.00 | 84 | 1019.1 |
| 20260506123501 | 54 | 180 | 4.0 | 7.0 | 0.00 | 0.00 | 0.00 | 84 | 1019.1 |
| 20260506123001 | 54 | 0 | 4.0 | 7.0 | 0.00 | 0.00 | 0.00 | 84 | 1019.1 |
| 20260506122501 | 54 | 207 | 5.0 | 8.0 | 0.00 | 0.00 | 0.00 | 84 | 1019.0 |
| 20260506122001 | 54 | 184 | 4.0 | 8.0 | 0.00 | 0.00 | 0.00 | 84 | 1018.9 |
| 20260506121501 | 54 | 193 | 5.0 | 12.0 | 0.00 | 0.00 | 0.00 | 84 | 1018.9 |
| 20260506121001 | 55 | 191 | 5.0 | 12.0 | 0.00 | 0.00 | 0.00 | 83 | 1018.9 |
| 20260506120501 | 55 | 190 | 5.0 | 10.0 | 0.00 | 0.00 | 0.00 | 83 | 1018.9 |
| 20260506120000 | 55 | 167 | 5.0 | 11.0 | 0.00 | 0.00 | 0.00 | 83 | 1018.9 |
| 20260506115502 | 55 | 186 | 5.0 | 11.0 | 0.00 | 0.00 | 0.00 | 83 | 1018.8 |
| 20260506115002 | 55 | 192 | 5.0 | 8.0 | 0.00 | 0.00 | 0.00 | 83 | 1018.8 |
| 20260506114501 | 55 | 186 | 4.0 | 9.0 | 0.00 | 0.00 | 0.00 | 83 | 1018.8 |
| 20260506113502 | 55 | 197 | 4.0 | 11.0 | 0.00 | 0.00 | 0.00 | 83 | 1018.6 |
| 20260506113001 | 55 | 186 | 4.0 | 11.0 | 0.00 | 0.00 | 0.00 | 83 | 1018.6 |
| 20260506112501 | 55 | 203 | 5.0 | 10.0 | 0.00 | 0.00 | 0.00 | 83 | 1018.6 |
| 20260506112001 | 55 | 193 | 4.0 | 10.0 | 0.00 | 0.00 | 0.00 | 83 | 1018.6 |
| 20260506111501 | 55 | 194 | 5.0 | 8.0 | 0.00 | 0.00 | 0.00 | 83 | 1018.6 |
| 20260506111001 | 55 | 175 | 5.0 | 9.0 | 0.00 | 0.00 | 0.00 | 83 | 1018.6 |
| 20260506110000 | 54 | 208 | 6.0 | 10.0 | 0.00 | 0.00 | 0.00 | 83 | 1018.5 |
| 20260506105501 | 54 | 198 | 6.0 | 9.0 | 0.00 | 0.00 | 0.00 | 83 | 1018.4 |
| 20260506105001 | 54 | 194 | 5.0 | 9.0 | 0.00 | 0.00 | 0.00 | 83 | 1018.5 |
| 20260506104501 | 54 | 197 | 4.0 | 8.0 | 0.00 | 0.00 | 0.00 | 83 | 1018.5 |
| 20260506104001 | 54 | 202 | 5.0 | 8.0 | 0.00 | 0.00 | 0.00 | 83 | 1018.3 |
| 20260506103500 | 54 | 194 | 5.0 | 8.0 | 0.00 | 0.00 | 0.00 | 83 | 1018.3 |
| 20260506102501 | 54 | 196 | 4.0 | 8.0 | 0.00 | 0.00 | 0.00 | 83 | 1018.2 |
| 20260506102001 | 54 | 202 | 5.0 | 8.0 | 0.00 | 0.00 | 0.00 | 83 | 1018.3 |
| 20260506101002 | 54 | 190 | 6.0 | 9.0 | 0.00 | 0.00 | 0.00 | 83 | 1018.2 |
| 20260506100501 | 54 | 188 | 6.0 | 10.0 | 0.00 | 0.00 | 0.00 | 83 | 1018.2 |
| 20260506100002 | 54 | 194 | 7.0 | 12.0 | 0.00 | 0.00 | 0.00 | 83 | 1018.1 |
| 20260506094501 | 55 | 205 | 8.0 | 14.0 | 0.00 | 0.00 | 0.00 | 83 | 1018.0 |
| 20260506094001 | 55 | 180 | 9.0 | 15.0 | 0.00 | 0.00 | 0.00 | 83 | 1017.9 |
| 20260506093500 | 55 | 196 | 9.0 | 15.0 | 0.00 | 0.00 | 0.00 | 83 | 1017.9 |
| 20260506093001 | 55 | 190 | 7.0 | 12.0 | 0.00 | 0.00 | 0.00 | 83 | 1017.9 |
| 20260506092501 | 55 | 194 | 7.0 | 12.0 | 0.00 | 0.00 | 0.00 | 83 | 1017.9 |
| 20260506092001 | 55 | 190 | 7.0 | 11.0 | 0.00 | 0.00 | 0.00 | 83 | 1017.9 |
| 20260506091502 | 55 | 0 | 7.0 | 11.0 | 0.00 | 0.00 | 0.00 | 83 | 1017.7 |
| 20260506090502 | 55 | 195 | 6.0 | 11.0 | 0.00 | 0.00 | 0.00 | 82 | 1017.7 |
| 20260506090002 | 55 | 187 | 6.0 | 11.0 | 0.00 | 0.00 | 0.00 | 82 | 1017.7 |
| 20260506085501 | 55 | 204 | 6.0 | 9.0 | 0.00 | 0.00 | 0.00 | 82 | 1017.7 |
| 20260506085000 | 55 | 165 | 6.0 | 10.0 | 0.00 | 0.00 | 0.00 | 82 | 1017.6 |
| 20260506084002 | 55 | 210 | 6.0 | 11.0 | 0.00 | 0.00 | 0.00 | 82 | 1017.5 |
| 20260506083001 | 55 | 171 | 5.0 | 10.0 | 0.00 | 0.00 | 0.00 | 81 | 1017.4 |
| 20260506082501 | 56 | 182 | 4.0 | 9.0 | 0.00 | 0.00 | 0.00 | 81 | 1017.4 |
| 20260506082001 | 56 | 171 | 5.0 | 10.0 | 0.00 | 0.00 | 0.00 | 81 | 1017.3 |
| 20260506081000 | 56 | 191 | 3.0 | 8.0 | 0.00 | 0.00 | 0.00 | 81 | 1017.2 |
| 20260506080501 | 56 | 201 | 2.0 | 8.0 | 0.00 | 0.00 | 0.00 | 80 | 1017.3 |
| 20260506073501 | 57 | 186 | 1.0 | 4.0 | 0.00 | 0.00 | 0.00 | 79 | 1017.1 |
| 20260506073001 | 57 | 186 | 1.0 | 4.0 | 0.00 | 0.00 | 0.00 | 79 | 1017.1 |
| 20260506072501 | 57 | 190 | 1.0 | 2.0 | 0.00 | 0.00 | 0.00 | 79 | 1017.0 |
| 20260506071000 | 57 | 191 | 2.0 | 6.0 | 0.00 | 0.00 | 0.00 | 78 | 1017.0 |
| 20260506070501 | 57 | 192 | 2.0 | 6.0 | 0.00 | 0.00 | 0.00 | 78 | 1017.0 |
| 20260506062500 | 58 | 194 | 4.0 | 8.0 | 0.00 | 0.00 | 0.00 | 77 | 1016.6 |
| 20260506062002 | 59 | 194 | 5.0 | 8.0 | 0.00 | 0.00 | 0.00 | 77 | 1016.5 |
| 20260506061501 | 59 | 182 | 5.0 | 9.0 | 0.00 | 0.00 | 0.00 | 77 | 1016.5 |
| 20260506061000 | 59 | 187 | 5.0 | 9.0 | 0.00 | 0.00 | 0.00 | 76 | 1016.4 |
| 20260506060502 | 59 | 194 | 6.0 | 9.0 | 0.00 | 0.00 | 0.00 | 76 | 1016.4 |
| 20260506051001 | 61 | 192 | 6.0 | 11.0 | 0.00 | 0.00 | 0.00 | 73 | 1015.8 |
| 20260506050501 | 61 | 192 | 6.0 | 12.0 | 0.00 | 0.00 | 0.00 | 73 | 1015.8 |
| 20260506045001 | 62 | 159 | 5.0 | 13.0 | 0.00 | 0.00 | 0.00 | 73 | 1015.6 |
| 20260506044500 | 62 | 0 | 6.0 | 13.0 | 0.00 | 0.00 | 0.00 | 73 | 1015.6 |
| 20260506044004 | 62 | 196 | 6.0 | 10.0 | 0.00 | 0.00 | 0.00 | 73 | 1015.6 |
| 20260506043002 | 62 | 188 | 4.0 | 7.0 | 0.00 | 0.00 | 0.00 | 73 | 1015.6 |
| 20260506042501 | 62 | 195 | 3.0 | 7.0 | 0.00 | 0.00 | 0.00 | 73 | 1015.5 |
| 20260506042001 | 62 | 191 | 3.0 | 9.0 | 0.00 | 0.00 | 0.00 | 73 | 1015.5 |
| 20260506041501 | 62 | 144 | 3.0 | 9.0 | 0.00 | 0.00 | 0.00 | 73 | 1015.5 |
| 20260506041000 | 62 | 167 | 2.0 | 8.0 | 0.00 | 0.00 | 0.00 | 73 | 1015.6 |
| 20260506040501 | 62 | 163 | 2.0 | 6.0 | 0.00 | 0.00 | 0.00 | 72 | 1015.5 |
| 20260506040001 | 62 | 165 | 3.0 | 6.0 | 0.00 | 0.00 | 0.00 | 72 | 1015.5 |
| 20260506035500 | 63 | 176 | 2.0 | 5.0 | 0.00 | 0.00 | 0.00 | 72 | 1015.4 |
| 20260506035001 | 63 | 169 | 2.0 | 4.0 | 0.00 | 0.00 | 0.00 | 71 | 1015.4 |
| 20260506034501 | 63 | 180 | 2.0 | 4.0 | 0.00 | 0.00 | 0.00 | 71 | 1015.3 |
| 20260506034002 | 63 | 163 | 1.0 | 4.0 | 0.00 | 0.00 | 0.00 | 71 | 1015.4 |
| 20260506033501 | 64 | 163 | 1.0 | 5.0 | 0.00 | 0.00 | 0.00 | 70 | 1015.3 |